Location: Orangeville
(43.9200°N, 80.0943°W)
Time: 12:36:46
(UTC-05:00)

Tiangong - Pass Details

Date: 15 December 2021
Orbit: 383 x 386 km, 41.5° (Epoch: 19 January)

Event Time Altitude Azimuth Distance (km) Brightness Sun altitude
Rises 19:29:07 0° 273° (W) 2,276 6.2 -28.8°
Reaches altitude 10° 19:31:22 10° 261° (W) 1,417 4.9 -29.2°
Enters shadow 19:31:56 14° 255° (WSW) 1,216 4.4 -29.3°
